Location: *
(46.4000°N, 12.6667°E)
Time: 03:52:24
(UTC+00:00)

X-37B - Pass Details

Date: 09 December 2021
Orbit: 334 x 337 km, 45.0° (Epoch: 11 January)

Event Time Altitude Azimuth Distance (km) Brightness Sun altitude
Rises 16:19:33 0° 225° (SW) 2,095 5.8 -9.5°
Reaches altitude 10° 16:21:46 10° 210° (SSW) 1,262 4.0 -9.8°
Maximum altitude 16:24:04 22° 155° (SSE) 781 2.1 -10.2°
Enters shadow 16:26:00 12° 105° (ESE) 1,143 2.5 -10.5°
